Find Starlink 2644

NORAD ID: 48442 Int'l Des: 2021-040 Owner: SPXS Country: US Constellation: starlink operational
LEOCIRCULAR

实时位置

正在加载3D地球...

关于 Starlink 2644

正在加载描述...

即将过境

Passes for default location (London). Set your location on the main map for personalized predictions.

高度历史

Loading altitude history...

两行轨道根数

1 48442U 21040Q 26126.55819639 .00005572 00000-0 19109-3 0 9994
2 48442 53.1582 269.0329 0001246 131.5348 228.5760 15.31715174275545
Epoch: May 6, 2026 • Age: 15 hours

当前状态

高度 474.6 km
速度 7.63 km/s
星下点 45.25°N, 112.43°E
发射日期 May 9, 2021
运行时间 4.9 years
类型 internet

技术详情

分类 Payload
质量 260.00 kg
干质量 248.00 kg
总质量 260.00 kg
长度 0.20 m
直径 2.80 m
跨度 9.00 m
形状 Box + pan
制造商 SPXS
平台类型 Starlink
阶段状态 In Orbit
所有者/国家 SPXS/US

Most Searched